Pinedale, WY

2:37 AM MDT on April 23, 2017 (GMT -0600)
Wenz

Weather History for KPNA - December, 2012

Change the Weather History Date:

Friday, December 28, 2012

  Actual Average (KBPI) Record (KBPI)
Temperature  
Mean Temperature 4 °F -  
Max Temperature 21 °F 24 °F 47 °F (1999)
Min Temperature -14 °F 1 °F -26 °F (1983)
Degree Days  
Heating Degree Days 62    
Moisture  
Dew Point -4 °F    
Average Humidity 80    
Maximum Humidity 100    
Minimum Humidity 58    
Precipitation  
Precipitation 0.00 in - - ()
Sea Level Pressure  
Sea Level Pressure 29.99 in    
Wind  
Wind Speed 6 mph (WNW)    
Max Wind Speed 18 mph    
Max Gust Speed 21 mph    
Visibility 10 miles    
Events      
Averages and records for this station are not official NWS values.
T = Trace of Precipitation, MM = Missing Value Source: NWS Daily Summary

Daily Weather History Graph

Daily Weather History Graph

Search for Another Location

Airport or City:

Trip Planner

Search our weather history database for the weather conditions in past years. The results will help you decide how hot, cold, wet, or windy it might be!

Date:

Astronomy

Dec. 28, 2012 Rise Set
Actual Time 7:49 AM MST 4:52 PM MST
Civil Twilight 7:17 AM MST 5:25 PM MST
Nautical Twilight 6:41 AM MST 6:00 PM MST
Astronomical Twilight 6:07 AM MST 6:35 PM MST
Moon 5:34 PM MST (12/28) 7:44 AM MST (12/28)
Length of Visible Light 10h 08m
Length of Day
9h 03m
Full, 100% of the Moon is Illuminated
Dec 28
Full
Jan 4
Last Quarter
Jan 11
New
Jan 18
First Quarter
Jan 26
Full

Hourly Weather History & Observations

Time (MST) Temp. Windchill Dew Point Humidity Pressure Visibility Wind Dir Wind Speed Gust Speed Precip Events Conditions
12:15 AM -14.8 °F -27.2 °F -18.4 °F 84% 29.89 in 7.0 mi WNW 4.6 mph - N/A   Scattered Clouds
12:35 AM -14.8 °F -24.8 °F -18.4 °F 84% 29.89 in 10.0 mi NW 3.5 mph - N/A   Clear
12:55 AM -13.0 °F -25.1 °F -16.6 °F 84% 29.89 in 10.0 mi WNW 4.6 mph - N/A   Clear
1:15 AM -13.0 °F -25.1 °F -18.4 °F 77% 29.90 in 10.0 mi West 4.6 mph - N/A   Clear
1:35 AM -13.0 °F -22.7 °F -16.6 °F 84% 29.90 in 10.0 mi WNW 3.5 mph - N/A   Clear
1:55 AM -9.4 °F - -14.8 °F 77% 29.91 in 10.0 mi North - - N/A   Clear
2:15 AM -11.2 °F -20.6 °F -14.8 °F 84% 29.92 in 10.0 mi West 3.5 mph - N/A   Scattered Clouds
2:35 AM -9.4 °F -18.6 °F -14.8 °F 77% 29.93 in 10.0 mi West 3.5 mph - N/A   Mostly Cloudy
2:55 AM -7.6 °F - -11.2 °F 84% 29.93 in 10.0 mi Calm Calm - N/A   Mostly Cloudy
3:15 AM -9.4 °F - -13.0 °F 84% 29.93 in 10.0 mi Calm Calm - N/A   Overcast
3:35 AM -9.4 °F - -14.8 °F 77% 29.92 in 10.0 mi Calm Calm - N/A   Overcast
4:15 AM -11.2 °F - -14.8 °F 84% 29.92 in 10.0 mi Calm Calm - N/A   Overcast
4:35 AM -11.2 °F - -14.8 °F 84% 29.92 in 10.0 mi Calm Calm - N/A   Overcast
4:55 AM -9.4 °F - -14.8 °F 77% 29.93 in 10.0 mi North - - N/A   Scattered Clouds
5:15 AM -13.0 °F - -14.8 °F 92% 29.93 in 10.0 mi North - - N/A   Scattered Clouds
5:35 AM -13.0 °F -25.1 °F -16.6 °F 84% 29.93 in 10.0 mi East 4.6 mph - N/A   Mostly Cloudy
5:55 AM -11.2 °F -20.6 °F -14.8 °F 84% 29.93 in 10.0 mi East 3.5 mph - N/A   Overcast
6:15 AM -11.2 °F - -14.8 °F 84% 29.93 in 10.0 mi North - - N/A   Overcast
6:35 AM -9.4 °F - -14.8 °F 77% 29.95 in 10.0 mi Calm Calm - N/A   Overcast
6:55 AM -9.4 °F - -13.0 °F 84% 29.95 in 10.0 mi North - - N/A   Overcast
7:15 AM -7.6 °F - -13.0 °F 77% 29.95 in 10.0 mi Calm Calm - N/A   Overcast
7:35 AM -7.6 °F - -11.2 °F 84% 29.95 in 10.0 mi Calm Calm - N/A   Overcast
7:55 AM -7.6 °F - -11.2 °F 84% 29.95 in 10.0 mi Calm Calm - N/A   Overcast
8:15 AM -7.6 °F - -11.2 °F 84% 29.95 in 10.0 mi Calm Calm - N/A   Overcast
8:35 AM -5.8 °F - -9.4 °F 84% 29.96 in 10.0 mi North - - N/A   Overcast
8:55 AM -5.8 °F - -9.4 °F 84% 29.97 in 10.0 mi North - - N/A   Mostly Cloudy
9:15 AM -4.0 °F - -7.6 °F 85% 29.97 in 10.0 mi North - - N/A   Mostly Cloudy
9:35 AM -0.4 °F -12.0 °F -5.8 °F 78% 29.97 in 10.0 mi East 5.8 mph - N/A   Scattered Clouds
9:55 AM -0.4 °F - -4.0 °F 85% 29.98 in 10.0 mi North - - N/A   Scattered Clouds
10:15 AM 1.4 °F - -0.4 °F 92% 29.99 in 10.0 mi Calm Calm - N/A   Clear
10:35 AM 3.2 °F - 1.4 °F 92% 30.00 in 10.0 mi Calm Calm - N/A   Clear
10:55 AM 15.8 °F -0.2 °F 15.8 °F 100% 29.99 in 10.0 mi WNW 17.3 mph - N/A   Clear
11:15 AM 17.6 °F 2.2 °F 14.0 °F 86% 29.99 in 7.0 mi WNW 17.3 mph - N/A   Clear
11:35 AM 17.6 °F 2.2 °F 14.0 °F 86% 29.98 in 7.0 mi WNW 17.3 mph - N/A   Clear
11:55 AM 17.6 °F 3.2 °F 14.0 °F 86% 29.98 in 10.0 mi WNW 15.0 mph - N/A   Clear
12:15 PM 17.6 °F 5.0 °F 12.2 °F 79% 29.98 in 10.0 mi WNW 11.5 mph - N/A   Clear
12:35 PM 21.2 °F 8.9 °F 10.4 °F 63% 29.97 in 10.0 mi WNW 12.7 mph 19.6 mph N/A   Scattered Clouds
12:55 PM 21.2 °F 6.8 °F 10.4 °F 63% 29.97 in 7.0 mi WNW 17.3 mph - N/A   Mostly Cloudy
1:15 PM 21.2 °F 7.3 °F 10.4 °F 63% 29.97 in 10.0 mi WNW 16.1 mph 19.6 mph N/A   Mostly Cloudy
1:35 PM 21.2 °F 7.8 °F 10.4 °F 63% 29.97 in 10.0 mi WNW 15.0 mph 19.6 mph N/A   Scattered Clouds
1:55 PM 21.2 °F 8.3 °F 10.4 °F 63% 29.97 in 10.0 mi West 13.8 mph 19.6 mph N/A   Mostly Cloudy
2:15 PM 21.2 °F 7.3 °F 10.4 °F 63% 29.98 in 10.0 mi WNW 16.1 mph - N/A   Overcast
2:35 PM 21.2 °F 7.3 °F 8.6 °F 58% 29.98 in 10.0 mi West 16.1 mph - N/A   Mostly Cloudy
2:55 PM 19.4 °F 4.5 °F 8.6 °F 63% 29.98 in 10.0 mi WNW 17.3 mph 20.7 mph N/A   Scattered Clouds
3:35 PM 19.4 °F 4.1 °F 6.8 °F 58% 30.00 in 10.0 mi WNW 18.4 mph - N/A   Clear
3:55 PM 19.4 °F 6.0 °F 8.6 °F 63% 30.00 in 10.0 mi West 13.8 mph - N/A   Scattered Clouds
4:15 PM 17.6 °F 5.0 °F 8.6 °F 68% 30.01 in 10.0 mi West 11.5 mph - N/A   Clear
4:55 PM 12.2 °F -1.0 °F 5.0 °F 73% 30.01 in 10.0 mi West 10.4 mph - N/A   Clear
5:15 PM 12.2 °F -1.0 °F 5.0 °F 73% 30.02 in 10.0 mi West 10.4 mph - N/A   Clear
5:35 PM 12.2 °F -3.1 °F 5.0 °F 73% 30.02 in 10.0 mi WNW 13.8 mph - N/A   Clear
5:55 PM 6.8 °F -7.8 °F 1.4 °F 79% 30.03 in 10.0 mi NW 10.4 mph - N/A   Clear
6:15 PM 8.6 °F -7.0 °F 3.2 °F 79% 30.03 in 10.0 mi NW 12.7 mph - N/A   Clear
6:35 PM 3.2 °F -11.3 °F -0.4 °F 85% 30.04 in 10.0 mi WNW 9.2 mph - N/A   Clear
6:55 PM 3.2 °F -12.2 °F -2.2 °F 78% 30.05 in 10.0 mi WNW 10.4 mph - N/A   Clear
7:15 PM 1.4 °F -15.3 °F -2.2 °F 85% 30.05 in 10.0 mi NW 11.5 mph - N/A   Clear
7:35 PM 3.2 °F -10.3 °F -0.4 °F 85% 30.05 in 10.0 mi WNW 8.1 mph - N/A   Clear
7:55 PM 1.4 °F -8.3 °F -2.2 °F 85% 30.06 in 10.0 mi NW 4.6 mph - N/A   Clear
8:15 PM 3.2 °F -10.3 °F -0.4 °F 85% 30.06 in 10.0 mi NW 8.1 mph - N/A   Clear
8:35 PM 1.4 °F - -4.0 °F 78% 30.06 in 10.0 mi Calm Calm - N/A   Clear
8:55 PM 5.0 °F -8.1 °F 1.4 °F 85% 30.06 in 10.0 mi NW 8.1 mph - N/A   Clear
9:15 PM 3.2 °F -11.3 °F -0.4 °F 85% 30.06 in 10.0 mi WNW 9.2 mph - N/A   Clear
9:35 PM 1.4 °F -13.5 °F -2.2 °F 85% 30.07 in 10.0 mi WNW 9.2 mph - N/A   Clear
9:55 PM 1.4 °F -13.5 °F -4.0 °F 78% 30.08 in 10.0 mi NW 9.2 mph - N/A   Clear
10:15 PM 1.4 °F -9.9 °F -4.0 °F 78% 30.09 in 10.0 mi WNW 5.8 mph - N/A   Clear
10:35 PM -2.2 °F -18.0 °F -5.8 °F 85% 30.09 in 10.0 mi NW 9.2 mph - N/A   Clear
10:55 PM -4.0 °F -16.3 °F -5.8 °F 92% 30.10 in 10.0 mi NNW 5.8 mph - N/A   Clear
11:15 PM -5.8 °F - -7.6 °F 92% 30.11 in 10.0 mi Calm Calm - N/A   Clear
11:35 PM -5.8 °F -14.5 °F -7.6 °F 92% 30.11 in 10.0 mi NNW 3.5 mph - N/A   Clear
11:55 PM -7.6 °F -18.8 °F -11.2 °F 84% 30.10 in 10.0 mi NNW 4.6 mph - N/A   Clear